[[{"header":{"parameterUnit":"m.s-1","parameterCategory":1,"la1":30.2991,"la2":30.254,"lo1":-89.0895,"lo2":-89.0444,"dy":0.0017,"dx":0.0017,"nx":28,"ny":28,"refTime":"2025-08-29T03:00:00:Z","depth":0,"parameterNumber":2,"parameterNumberName":"U-component_of_WINDS"},"data":[0,0,0,0,0,0,0,0,0,0,0,0,0,0,0,0,0,0,0,0,0,0,0,0,0,0,0,0,0,0,0,0,0,0,0,0,0,0,0,0,0,0,0,0,0,0,0,0,0,0,0,0,0,0,0,0,0,0,2.6763,2.6762,0,2.6612,2.661,2.6608,2.6425,2.6422,2.6419,2.6417,2.6259,2.6257,2.6256,0,0,0,0,0,0,0,0,0,0,0,0,0,2.6892,2.6891,2.6764,2.6762,2.676,2.6612,2.661,2.6608,2.6426,2.6422,2.6419,2.6415,2.6259,2.6257,2.6255,0,0,0,0,0,0,0,0,0,0,0,0,0,2.6798,2.689,2.6764,2.6651,2.6639,2.6612,2.661,2.6607,2.6426,2.6422,2.6418,2.6414,2.626,2.6258,2.6255,2.6326,0,0,2.6248,2.6247,0,0,0,0,0,0,0,0,2.6804,2.6793,2.667,2.6659,2.6646,2.6533,2.6597,2.6513,2.6427,2.6507,2.6417,2.6412,2.6353,2.6343,2.6324,2.6318,2.6312,2.6248,2.6246,2.6245,2.6245,0,0,0,0,0,0,0,2.681,2.6799,2.6703,2.6668,2.6653,2.6607,2.6589,2.658,2.6456,2.65,2.6486,2.6471,2.6346,2.6326,2.6319,2.6309,2.6248,2.6246,2.6244,2.6243,2.6349,2.6354,0,0,0,0,0,0,2.6834,2.6806,2.6708,2.6699,2.6716,2.6608,2.6588,2.6573,2.6455,2.6433,2.6475,2.6463,2.6333,2.6322,2.6312,2.6383,2.6245,2.6243,2.6242,2.6345,2.635,2.6355,0,0,0,0,0,0,2.6838,2.6827,2.6714,2.6748,2.673,2.661,2.6596,2.6573,2.6553,2.6436,2.6413,2.6478,2.6329,2.6316,2.6323,2.6375,2.6242,2.624,2.634,2.6347,2.6353,2.6528,0,0,0,0,0,0,2.6842,2.683,2.6856,2.675,2.6729,2.6729,2.6599,2.6573,2.655,2.6533,2.6433,2.6412,2.6324,2.6327,2.6321,2.6369,2.6238,2.6335,2.6343,2.6351,2.6517,2.6539,2.6559,0,0,0,0,0,2.6847,2.6912,2.6858,2.6848,2.676,2.6732,2.672,2.6618,2.6555,2.6579,2.6504,2.6416,2.6372,2.633,2.6321,2.6369,2.6331,2.6341,2.635,2.6507,2.6535,2.6558,0,0,0,0,0,0,2.7026,2.6896,2.6835,2.6867,2.6813,2.6702,2.6729,2.6651,2.6612,2.6598,2.6473,2.6452,2.6473,2.6422,2.6378,2.6429,2.6338,2.6346,2.6461,2.6486,2.6507,2.6516,2.6236,0,0,0,0,0,2.7069,2.7059,2.6945,2.6985,2.696,2.6851,2.6835,2.6761,2.6698,2.6674,2.6599,2.6541,2.6513,2.6498,2.6466,2.651,2.6483,2.6539,2.656,2.6578,2.6585,2.6599,2.6621,2.6386,2.6386,2.6386,0,0,2.7158,2.7086,2.7086,2.7019,2.6967,2.6957,2.6832,2.6827,2.6817,2.6673,2.6673,2.6618,2.6544,2.6569,2.6576,2.6527,2.6644,2.659,2.6605,2.6602,2.6611,2.6634,2.6654,2.6393,2.6391,2.639,0,0,2.7313,2.726,2.7284,2.7236,2.716,2.7086,2.7093,2.6994,2.695,2.695,2.684,2.6827,2.6784,2.6734,2.6704,2.6841,2.6756,2.6835,2.6942,2.6958,2.6976,2.6992,2.7036,2.7054,2.6843,2.6843,2.6844,0,2.7432,2.7413,2.7307,2.7308,2.728,2.715,2.7172,2.7131,2.7049,2.7031,2.6979,2.6919,2.6861,2.687,2.6903,2.6885,2.6885,2.6843,2.6983,2.6997,2.701,2.7051,2.7068,2.6853,2.6852,2.6851,2.685,0,2.7561,2.755,2.7579,2.7503,2.7479,2.7492,2.7385,2.7373,2.7303,2.7234,2.7234,2.716,2.7109,2.7107,2.7038,2.7106,2.7077,2.7007,2.6911,2.7044,2.7079,2.7095,2.6867,2.6863,2.686,2.6858,0,0,2.782,2.7686,2.7698,2.766,2.7568,2.7556,2.7562,2.7513,2.7504,2.7453,2.7451,2.7418,2.735,2.7316,2.724,2.7255,2.7362,2.7181,2.7177,2.7213,2.7426,2.7477,2.7497,2.7308,2.7311,2.7313,2.7431,0,2.7954,2.7956,2.7861,2.7889,2.7875,2.7752,2.7757,2.77,2.7637,2.7614,2.7544,2.752,2.7436,2.7413,2.7423,2.7348,2.7403,2.7338,2.7301,2.7301,2.7318,2.7516,2.7569,2.7684,2.7445,2.7447,2.7449,0,2.8109,2.8066,2.8093,2.7997,2.7988,2.7994,2.794,2.7923,2.7854,2.7807,2.7769,2.7683,2.768,2.7594,2.7585,2.7543,2.7523,2.7484,2.7486,2.7474,2.7379,2.7504,2.7719,2.7734,2.747,2.7469,2.7467,0,2.8289,2.8239,2.8247,2.8219,2.811,2.8116,2.807,2.7998,2.7974,2.7928,2.791,2.7865,2.7838,2.7803,2.7706,2.7654,2.7707,2.7614,2.7663,2.7666,2.7676,2.7675,2.7885,2.7673,2.7673,2.7673,2.7672,0,2.8444,2.8464,2.8325,2.833,2.8348,2.8239,2.8259,2.8201,2.8139,2.8128,2.8021,2.8013,2.7888,2.7865,2.779,2.7791,2.7782,2.774,2.7719,2.7747,2.7751,2.7727,2.7715,2.7677,2.7676,2.7675,2.7674,0,2.8645,2.8554,2.8554,2.8451,2.8425,2.8443,2.8353,2.8351,2.8283,2.8271,2.8262,2.8153,2.8121,2.8022,2.7965,2.7914,2.7936,2.7899,2.7959,2.7944,2.7997,2.7991,2.8194,2.8212,2.7995,2.7998,2.7999,0,2.8747,2.8759,2.8658,2.8644,2.8603,2.8582,2.8557,2.8451,2.8429,2.8352,2.836,2.8319,2.828,2.8234,2.8148,2.8103,2.8061,2.8136,2.8053,2.808,2.8055,2.8054,2.8052,2.8152,2.8155,2.8157,2.8159,0,2.8937,2.8891,2.886,2.8814,2.8788,2.8746,2.8697,2.8692,2.8572,2.8553,2.8519,2.8489,2.8431,2.839,2.8332,2.8282,2.8199,2.8187,2.8194,2.822,2.8251,2.8229,2.8001,2.8181,2.8179,2.8177,2.8176,2.8175,2.9086,2.9091,2.9019,2.8988,2.8941,2.8899,2.8891,2.8823,2.8793,2.8738,2.8677,2.865,2.8579,2.8492,2.8448,2.8423,2.8379,2.8392,2.8394,2.8398,2.8409,2.8261,2.8413,2.8412,2.8411,2.8411,2.841,0,2.9265,2.9214,2.9187,2.9123,2.9098,2.9027,2.8969,2.8952,2.8929,2.8872,2.8837,2.8796,2.8757,2.8669,2.8621,2.8617,2.8577,2.8607,2.8603,2.8592,2.8453,2.8449,2.864,2.864,2.864,2.864,2.864,2.864,2.9355,2.9356,2.9303,2.928,2.9227,2.92,2.9173,2.9132,2.9085,2.9046,2.9013,2.8957,2.8886,2.8832,2.8791,2.8766,2.875,2.8792,2.8754,2.8624,2.8602,2.8581,2.8576,2.8791,2.8791,2.8893,2.8894,2.8895]},{"header":{"parameterUnit":"m.s-1","parameterCategory":1,"la1":30.2991,"la2":30.254,"lo1":-89.0895,"lo2":-89.0444,"dy":0.0017,"dx":0.0017,"nx":28,"ny":28,"refTime":"2025-08-29T03:00:00:Z","depth":0,"parameterNumber":3,"parameterNumberName":"V-component_of_WINDS"},"data":[0,0,0,0,0,0,0,0,0,0,0,0,0,0,0,0,0,0,0,0,0,0,0,0,0,0,0,0,0,0,0,0,0,0,0,0,0,0,0,0,0,0,0,0,0,0,0,0,0,0,0,0,0,0,0,0,0,0,2.5611,2.5612,0,2.57,2.5701,2.5702,2.5648,2.5646,2.5643,2.5641,2.5728,2.5733,2.5738,0,0,0,0,0,0,0,0,0,0,0,0,0,2.5388,2.5392,2.5611,2.5612,2.5613,2.57,2.5701,2.5703,2.5649,2.5646,2.5643,2.564,2.5727,2.5732,2.5738,0,0,0,0,0,0,0,0,0,0,0,0,0,2.5482,2.5394,2.5611,2.5597,2.5597,2.57,2.5701,2.5703,2.565,2.5646,2.5642,2.5638,2.5725,2.5732,2.5739,2.586,0,0,2.5761,2.5764,0,0,0,0,0,0,0,0,2.5476,2.549,2.5598,2.5598,2.5598,2.5659,2.5655,2.5755,2.565,2.5629,2.5641,2.5636,2.5708,2.5717,2.5742,2.5864,2.5868,2.5761,2.5766,2.5769,2.5771,0,0,0,0,0,0,0,2.547,2.5486,2.5646,2.5599,2.56,2.5584,2.5593,2.5674,2.5689,2.5631,2.5627,2.5639,2.5708,2.5735,2.5743,2.5869,2.5761,2.5767,2.5772,2.5774,2.6089,2.6093,0,0,0,0,0,0,2.5465,2.5481,2.5643,2.5649,2.5527,2.5591,2.5602,2.5643,2.5688,2.5691,2.5642,2.5636,2.5725,2.5735,2.5746,2.5886,2.5768,2.5775,2.5779,2.6085,2.609,2.6094,0,0,0,0,0,0,2.5461,2.548,2.564,2.5564,2.5583,2.5599,2.5647,2.5647,2.5675,2.5697,2.5699,2.5667,2.5722,2.5736,2.5831,2.5889,2.5778,2.5785,2.608,2.6087,2.6092,2.6171,0,0,0,0,0,0,2.5455,2.5479,2.5527,2.5565,2.5587,2.5725,2.5651,2.5652,2.5687,2.568,2.5721,2.5724,2.572,2.5821,2.5838,2.5897,2.579,2.6075,2.6083,2.609,2.6163,2.6179,2.6192,0,0,0,0,0,2.5447,2.5545,2.5529,2.5549,2.5647,2.5729,2.5741,2.5736,2.5692,2.5739,2.5752,2.5723,2.5881,2.5831,2.585,2.5912,2.6071,2.6081,2.609,2.6156,2.6176,2.6192,0,0,0,0,0,0,2.5512,2.555,2.5533,2.5648,2.5685,2.5719,2.5778,2.5757,2.5807,2.5798,2.5788,2.5798,2.5896,2.5914,2.5858,2.6028,2.5969,2.5982,2.6013,2.6031,2.6046,2.6038,2.5796,0,0,0,0,0,2.5541,2.5605,2.5634,2.5732,2.5752,2.5762,2.5797,2.579,2.5828,2.5843,2.5864,2.5901,2.5958,2.5996,2.6051,2.6166,2.6172,2.6218,2.6232,2.6244,2.6255,2.6313,2.6332,2.6125,2.6125,2.6125,0,0,2.5599,2.5627,2.5668,2.5746,2.5774,2.5838,2.5776,2.5848,2.5894,2.5854,2.5944,2.596,2.6,2.6105,2.6152,2.6123,2.6314,2.6256,2.6265,2.627,2.6324,2.6344,2.6361,2.6131,2.613,2.6129,0,0,2.5736,2.5767,2.5849,2.5879,2.5923,2.5928,2.5948,2.5985,2.5995,2.6085,2.6055,2.611,2.621,2.6239,2.6266,2.6412,2.6385,2.643,2.6506,2.6562,2.6579,2.6593,2.6641,2.6659,2.6442,2.6442,2.6442,0,2.5802,2.59,2.5894,2.5967,2.6,2.5968,2.6049,2.6078,2.6137,2.616,2.6127,2.6249,2.6275,2.6383,2.6418,2.6443,2.6463,2.6424,2.6577,2.6591,2.6605,2.665,2.6669,2.6447,2.6446,2.6446,2.6445,0,2.5976,2.6044,2.6106,2.6163,2.6204,2.6281,2.6285,2.6326,2.6315,2.6323,2.6413,2.6442,2.65,2.6526,2.6516,2.6632,2.6612,2.6579,2.6518,2.6629,2.6672,2.6689,2.6454,2.6452,2.6451,2.6449,0,0,2.6157,2.621,2.6232,2.6256,2.6301,2.6352,2.6427,2.6484,2.6517,2.6559,2.6618,2.6703,2.6671,2.6703,2.6696,2.6746,2.6854,2.6706,2.6706,2.6729,2.6978,2.7001,2.7021,2.6838,2.6841,2.6844,2.6974,0,2.6295,2.6425,2.6421,2.6542,2.6602,2.6571,2.6635,2.6668,2.6678,2.6728,2.6738,2.6797,2.6753,2.6771,2.6819,2.6831,2.6903,2.6822,2.6889,2.6892,2.6876,2.7044,2.7068,2.719,2.6991,2.6994,2.6996,0,2.6472,2.6519,2.6646,2.6678,2.6703,2.6762,2.6811,2.6862,2.6897,2.69,2.6935,2.6919,2.699,2.693,2.7027,2.6972,2.6999,2.7009,2.7013,2.7016,2.6948,2.7048,2.7229,2.7245,2.7023,2.702,2.7018,0,2.6586,2.6681,2.6768,2.679,2.6832,2.6872,2.6891,2.6924,2.6957,2.7001,2.7021,2.7073,2.71,2.7139,2.7136,2.7093,2.7233,2.7173,2.7234,2.7234,2.7262,2.726,2.7446,2.7287,2.7286,2.7286,2.7286,0,2.6737,2.6814,2.6819,2.6872,2.6957,2.6951,2.7034,2.7049,2.7077,2.7131,2.7108,2.7158,2.7153,2.7203,2.7201,2.7279,2.7292,2.7294,2.7292,2.7294,2.7293,2.7309,2.7299,2.7291,2.729,2.7289,2.7288,0,2.6877,2.6884,2.6975,2.7007,2.7017,2.7078,2.7104,2.7152,2.716,2.7227,2.7243,2.7253,2.7311,2.7312,2.7378,2.7377,2.747,2.7461,2.7458,2.7455,2.7514,2.7507,2.7714,2.7739,2.7567,2.7569,2.757,0,2.6971,2.703,2.7068,2.7102,2.7123,2.718,2.7213,2.7209,2.7245,2.7288,2.7331,2.7386,2.743,2.7522,2.7534,2.7583,2.7572,2.7641,2.7579,2.7578,2.7568,2.7563,2.7567,2.7652,2.7654,2.7656,2.7657,0,2.7136,2.7136,2.7186,2.7237,2.7278,2.7317,2.7354,2.7383,2.7383,2.7423,2.7482,2.7516,2.7582,2.7635,2.7683,2.77,2.7677,2.7677,2.7693,2.7694,2.7688,2.7688,2.7487,2.7671,2.767,2.7669,2.7668,2.7668,2.7253,2.7302,2.7335,2.7391,2.7418,2.7452,2.7499,2.7512,2.7561,2.7615,2.7609,2.7673,2.7704,2.7765,2.7786,2.7834,2.781,2.7834,2.7839,2.7844,2.7849,2.7684,2.7843,2.7843,2.7843,2.7842,2.7842,0,2.7412,2.7432,2.7484,2.7535,2.7578,2.7556,2.7594,2.7631,2.7688,2.7719,2.7762,2.7827,2.7879,2.7895,2.7944,2.7979,2.797,2.7992,2.7987,2.799,2.787,2.7849,2.7998,2.7998,2.7998,2.7998,2.7998,2.7998,2.75,2.7581,2.7585,2.7677,2.7696,2.7759,2.7782,2.7813,2.7837,2.7911,2.7954,2.7965,2.7989,2.8039,2.8084,2.8087,2.8105,2.813,2.8129,2.8015,2.7999,2.7984,2.7965,2.8135,2.8135,2.8244,2.8245,2.8246]}]]